| time (UTC) | temp F | wind direction | speed knots | gust knots | rain 1hr in | rain 24hr in | rain mn in | humidity % | barometer mb |
| 20260502194558 | 65 | 221 | 5.2 | 10.4 | 0.00 | 0.00 | 0.00 | 30 | 1015.3 |
| 20260502193101 | 64 | 206 | 4.3 | 13.0 | 0.00 | 0.00 | 0.00 | 31 | 1015.6 |
| 20260502191549 | 62 | 179 | 8.7 | 15.6 | 0.00 | 0.00 | 0.00 | 31 | 1016.0 |
| 20260502190041 | 62 | 214 | 6.1 | 12.2 | 0.00 | 0.00 | 0.00 | 30 | 1016.3 |
| 20260502184542 | 62 | 247 | 5.2 | 13.0 | 0.00 | 0.00 | 0.00 | 31 | 1016.7 |
| 20260502183038 | 61 | 207 | 7.0 | 14.8 | 0.00 | 0.00 | 0.00 | 30 | 1017.0 |
| 20260502181537 | 60 | 201 | 5.2 | 13.0 | 0.00 | 0.00 | 0.00 | 32 | 1017.2 |
| 20260502163019 | 57 | 196 | 7.8 | 10.4 | 0.00 | 0.00 | 0.00 | 34 | 1018.9 |
| 20260502161513 | 56 | 221 | 3.5 | 9.6 | 0.00 | 0.00 | 0.00 | 36 | 1019.1 |
| 20260502151605 | 54 | 279 | 2.6 | 7.8 | 0.00 | 0.00 | 0.00 | 43 | 1019.6 |
| 20260502123035 | 39 | 225 | 2.6 | 3.5 | 0.00 | 0.00 | 0.00 | 69 | 1020.2 |
| 20260502121518 | 38 | 212 | 2.6 | 7.0 | 0.00 | 0.00 | 0.00 | 70 | 1020.2 |
| 20260502114510 | 37 | 219 | 1.7 | 5.2 | 0.00 | 0.00 | 0.00 | 72 | 1020.0 |
| 20260502113007 | 36 | 253 | 0.9 | 3.5 | 0.00 | 0.00 | 0.00 | 72 | 1020.0 |
| 20260502111504 | 37 | 198 | 1.7 | 4.3 | 0.00 | 0.00 | 0.00 | 71 | 1019.8 |
| 20260502110002 | 37 | 224 | 1.7 | 4.3 | 0.00 | 0.00 | 0.00 | 70 | 1019.8 |
| 20260502104600 | 37 | 229 | 1.7 | 4.3 | 0.00 | 0.00 | 0.00 | 69 | 1019.9 |
| 20260502103058 | 38 | 216 | 2.6 | 4.3 | 0.00 | 0.00 | 0.00 | 67 | 1019.9 |
| 20260502101559 | 38 | 224 | 1.7 | 3.5 | 0.00 | 0.00 | 0.00 | 66 | 1019.8 |
| 20260502070034 | 41 | 240 | 1.7 | 3.5 | 0.00 | 0.00 | 0.00 | 60 | 1020.1 |
| 20260502064535 | 41 | 246 | 1.7 | 3.5 | 0.00 | 0.00 | 0.00 | 60 | 1020.1 |
| 20260502063044 | 41 | 234 | 1.7 | 3.5 | 0.00 | 0.00 | 0.00 | 60 | 1020.3 |
| 20260502061529 | 41 | 225 | 1.7 | 3.5 | 0.00 | 0.00 | 0.00 | 59 | 1020.1 |
| 20260502060027 | 42 | 229 | 0.9 | 3.5 | 0.00 | 0.00 | 0.00 | 58 | 1020.2 |
| 20260502054526 | 42 | 230 | 1.7 | 3.5 | 0.00 | 0.00 | 0.00 | 56 | 1020.2 |
| 20260502053024 | 43 | 223 | 0.9 | 3.5 | 0.00 | 0.00 | 0.00 | 54 | 1020.3 |
| 20260502051525 | 43 | 227 | 0.9 | 3.5 | 0.00 | 0.00 | 0.00 | 52 | 1020.2 |
| 20260502050032 | 43 | 222 | 0.9 | 3.5 | 0.00 | 0.00 | 0.00 | 52 | 1020.1 |
| 20260502044521 | 43 | 235 | 0.9 | 3.5 | 0.00 | 0.00 | 0.00 | 50 | 1020.1 |
| 20260502043020 | 44 | 229 | 0.9 | 3.5 | 0.00 | 0.00 | 0.00 | 50 | 1020.1 |
| 20260502041526 | 44 | 237 | 0.9 | 2.6 | 0.00 | 0.00 | 0.00 | 49 | 1020.0 |
| 20260502040019 | 45 | 237 | 0.9 | 2.6 | 0.00 | 0.00 | 0.00 | 46 | 1020.1 |
| 20260502034522 | 46 | 238 | 1.7 | 2.6 | 0.00 | 0.00 | 0.00 | 45 | 1020.1 |
| 20260502033020 | 46 | 238 | 0.9 | 2.6 | 0.00 | 0.00 | 0.00 | 43 | 1020.1 |
| 20260502031518 | 46 | 242 | 0.9 | 2.6 | 0.00 | 0.00 | 0.00 | 42 | 1020.1 |
| 20260502030118 | 47 | 271 | 0.9 | 2.6 | 0.00 | 0.00 | 0.00 | 41 | 1020.2 |
| 20260502024517 | 47 | 291 | 0.9 | 1.7 | 0.00 | 0.00 | 0.00 | 41 | 1020.1 |
| 20260502023016 | 47 | 292 | 0.0 | 1.7 | 0.00 | 0.00 | 0.00 | 40 | 1020.1 |
| 20260502021516 | 48 | 292 | 0.0 | 1.7 | 0.00 | 0.00 | 0.00 | 39 | 1020.0 |
| 20260502020016 | 49 | 292 | 0.0 | 0.9 | 0.00 | 0.00 | 0.00 | 38 | 1019.9 |
| 20260502014515 | 50 | 292 | 0.0 | 1.7 | 0.00 | 0.00 | 0.00 | 37 | 1019.7 |
| 20260502013015 | 50 | 292 | 0.9 | 3.5 | 0.00 | 0.00 | 0.00 | 36 | 1019.6 |
| 20260502011519 | 51 | 298 | 1.7 | 5.2 | 0.00 | 0.00 | 0.00 | 34 | 1019.6 |
| 20260502010019 | 52 | 298 | 1.7 | 6.1 | 0.00 | 0.00 | 0.00 | 34 | 1019.5 |
| 20260502004538 | 52 | 312 | 3.5 | 9.6 | 0.00 | 0.00 | 0.00 | 33 | 1019.5 |
| 20260502003013 | 53 | 286 | 5.2 | 10.4 | 0.00 | 0.00 | 0.00 | 33 | 1019.5 |
| 20260502001516 | 54 | 307 | 2.6 | 7.8 | 0.00 | 0.00 | 0.00 | 30 | 1019.4 |
| 20260502000011 | 54 | 26 | 0.0 | 3.5 | 0.00 | 0.00 | 0.00 | 32 | 1019.4 |
| 20260501234511 | 52 | 329 | 0.9 | 2.6 | 0.00 | 0.00 | 0.00 | 33 | 1019.5 |
| 20260501233010 | 52 | 16 | 1.7 | 7.0 | 0.00 | 0.00 | 0.00 | 33 | 1019.5 |
| 20260501231515 | 54 | 47 | 2.6 | 7.8 | 0.00 | 0.00 | 0.00 | 30 | 1019.4 |
| 20260501230009 | 52 | 360 | 1.7 | 5.2 | 0.00 | 0.00 | 0.00 | 33 | 1019.5 |
| 20260501224509 | 52 | 326 | 4.3 | 10.4 | 0.00 | 0.00 | 0.00 | 33 | 1019.6 |
| 20260501223010 | 53 | 339 | 5.2 | 9.6 | 0.00 | 0.00 | 0.00 | 31 | 1019.5 |
| 20260501221508 | 51 | 311 | 3.5 | 7.0 | 0.00 | 0.00 | 0.00 | 32 | 1019.6 |
| 20260501220007 | 51 | 320 | 2.6 | 7.0 | 0.00 | 0.00 | 0.00 | 34 | 1019.6 |
| 20260501214512 | 51 | 305 | 4.3 | 9.6 | 0.00 | 0.00 | 0.00 | 33 | 1019.6 |
| 20260501213020 | 53 | 288 | 2.6 | 7.8 | 0.00 | 0.00 | 0.00 | 33 | 1019.5 |
| 20260501211506 | 53 | 332 | 4.3 | 7.8 | 0.00 | 0.00 | 0.00 | 32 | 1019.7 |
| 20260501210010 | 53 | 284 | 2.6 | 12.2 | 0.00 | 0.00 | 0.00 | 32 | 1019.7 |
| 20260501204505 | 54 | 312 | 3.5 | 8.7 | 0.00 | 0.00 | 0.00 | 32 | 1019.7 |
| 20260501203003 | 53 | 308 | 5.2 | 10.4 | 0.00 | 0.00 | 0.00 | 30 | 1019.9 |
| 20260501201503 | 51 | 45 | 0.9 | 9.6 | 0.00 | 0.00 | 0.00 | 35 | 1019.9 |
| 20260501200002 | 53 | 355 | 6.1 | 9.6 | 0.00 | 0.00 | 0.00 | 33 | 1020.0 |